sat.trackr.live / text

‹ back to catalog

STARLINK-36703

NORAD 67650 · 2026-022C

PAYLOAD ACTIVE UNKNOWN

§ Identity

Operator
Country
US
Launch date
2026-02-02
Launch site
AFWTR
Launch vehicle
Mass (kg)
RCS (m²)

Purposes: comms

External: N2YO · Heavens-Above · Gunter

§ Orbital elements

Epoch: 2026-09-19T21:20:52.965888Z

Period
93.90 min
Inclination
97.2859°
Eccentricity
0.0000878
Mean motion
15.33469906 rev/d
Perigee alt
464.9 km
Apogee alt
466.1 km
Semi-major
6,843.6 km
B*
4.9375e-4
RAAN
294.4626°
Arg perigee
104.4097°
Mean anomaly
255.7244°
Rev number
3,533

§ Raw data

STARLINK-367031 67650U 26022C   26262.88950192  .00015911  00000+0  49375-3 0  99932 67650  97.2859 294.4626 0000878 104.4097 255.7244 15.33469906 35336

JSON: /api/v1/satellites/67650 · /tle

For live sub-satellite position, see the globe view (requires WebGL).

§ Visibility from observer

Set your observer location to see the next 7 days of passes ≥ 10°. The values pass through the URL so the page stays shareable.

No JS? Fill the form by hand. The geolocation button needs JavaScript.